Year,Month,Day,Hour,Minute,Value (Times are PST for temperature in C)
2012,08,14,00,00,12.90
2012,08,14,00,01,12.90
2012,08,14,00,02,12.90
2012,08,14,00,03,12.90
2012,08,14,00,04,12.90
2012,08,14,00,05,12.90
2012,08,14,00,06,12.90
2012,08,14,00,07,12.90
2012,08,14,00,08,12.90
2012,08,14,00,09,12.90
2012,08,14,00,10,12.90
2012,08,14,00,11,12.90
2012,08,14,00,12,12.90
2012,08,14,00,13,12.90
2012,08,14,00,14,12.90
2012,08,14,00,15,12.90
2012,08,14,00,16,12.90
2012,08,14,00,17,12.90
2012,08,14,00,18,12.90
2012,08,14,00,19,12.90
2012,08,14,00,20,13.00
2012,08,14,00,21,12.90
2012,08,14,00,22,13.00
2012,08,14,00,23,13.00
2012,08,14,00,24,13.00
2012,08,14,00,25,13.00
2012,08,14,00,26,13.00
2012,08,14,00,27,13.00
2012,08,14,00,28,13.00
2012,08,14,00,29,13.00
2012,08,14,00,30,13.00
2012,08,14,00,31,13.00
2012,08,14,00,32,13.00
2012,08,14,00,33,13.00
2012,08,14,00,34,13.00
2012,08,14,00,35,13.00
2012,08,14,00,36,13.00
2012,08,14,00,37,13.00
2012,08,14,00,38,13.00
2012,08,14,00,39,13.10
2012,08,14,00,40,13.00
2012,08,14,00,41,13.00
2012,08,14,00,42,13.10
2012,08,14,00,43,13.00
2012,08,14,00,44,13.00
2012,08,14,00,45,13.00
2012,08,14,00,46,13.00
2012,08,14,00,47,13.00
2012,08,14,00,48,13.00
2012,08,14,00,49,13.00
2012,08,14,00,50,13.00
2012,08,14,00,51,13.00
2012,08,14,00,52,13.00
2012,08,14,00,53,13.10
2012,08,14,00,54,13.10
2012,08,14,00,55,13.10
2012,08,14,00,56,13.10
2012,08,14,00,57,13.10
2012,08,14,00,58,13.10
2012,08,14,00,59,13.10
2012,08,14,01,00,13.10
2012,08,14,01,01,13.10
2012,08,14,01,02,13.10
2012,08,14,01,03,13.10
2012,08,14,01,04,13.10
2012,08,14,01,05,13.10
2012,08,14,01,06,13.10
2012,08,14,01,07,13.10
2012,08,14,01,08,13.10
2012,08,14,01,09,13.10
2012,08,14,01,10,13.10
2012,08,14,01,11,13.10
2012,08,14,01,12,13.10
2012,08,14,01,13,13.10
2012,08,14,01,14,13.10
2012,08,14,01,15,13.10
2012,08,14,01,16,13.10
2012,08,14,01,17,13.10
2012,08,14,01,18,13.10
2012,08,14,01,19,13.20
2012,08,14,01,20,13.20
2012,08,14,01,21,13.10
2012,08,14,01,22,13.20
2012,08,14,01,23,13.20
2012,08,14,01,24,13.20
2012,08,14,01,25,13.10
2012,08,14,01,26,13.20
2012,08,14,01,27,13.20
2012,08,14,01,28,13.20
2012,08,14,01,29,13.20
2012,08,14,01,30,13.20
2012,08,14,01,31,13.20
2012,08,14,01,32,13.10
2012,08,14,01,33,13.20
2012,08,14,01,34,13.10
2012,08,14,01,35,13.10
2012,08,14,01,36,13.10
2012,08,14,01,37,13.10
2012,08,14,01,38,13.10
2012,08,14,01,39,13.10
2012,08,14,01,40,13.20
2012,08,14,01,41,13.10
2012,08,14,01,42,13.20
2012,08,14,01,43,13.20
2012,08,14,01,44,13.20
2012,08,14,01,45,13.20
2012,08,14,01,46,13.20
2012,08,14,01,47,13.20
2012,08,14,01,48,13.20
2012,08,14,01,49,13.20
2012,08,14,01,50,13.20
2012,08,14,01,51,13.20
2012,08,14,01,52,13.20
2012,08,14,01,53,13.20
2012,08,14,01,54,13.20
2012,08,14,01,55,13.20
2012,08,14,01,56,13.20
2012,08,14,01,57,13.20
2012,08,14,01,58,13.20
2012,08,14,01,59,13.20
2012,08,14,02,00,13.20
2012,08,14,02,01,13.20
2012,08,14,02,02,13.20
2012,08,14,02,03,13.20
2012,08,14,02,04,13.20
2012,08,14,02,05,13.20
2012,08,14,02,06,13.20
2012,08,14,02,07,13.20
2012,08,14,02,08,13.20
2012,08,14,02,09,13.10
2012,08,14,02,10,13.20
2012,08,14,02,11,13.20
2012,08,14,02,12,13.20
2012,08,14,02,13,13.20
2012,08,14,02,14,13.20
2012,08,14,02,15,13.20
2012,08,14,02,16,13.20
2012,08,14,02,17,13.20
2012,08,14,02,18,13.20
2012,08,14,02,19,13.20
2012,08,14,02,20,13.20
2012,08,14,02,21,13.20
2012,08,14,02,22,13.20
2012,08,14,02,23,13.20
2012,08,14,02,24,13.20
2012,08,14,02,25,13.20
2012,08,14,02,26,13.20
2012,08,14,02,27,13.20
2012,08,14,02,28,13.20
2012,08,14,02,29,13.20
2012,08,14,02,30,13.20
2012,08,14,02,31,13.20
2012,08,14,02,32,13.20
2012,08,14,02,33,13.20
2012,08,14,02,34,13.20
2012,08,14,02,35,13.20
2012,08,14,02,36,13.20
2012,08,14,02,37,13.20
2012,08,14,02,38,13.20
2012,08,14,02,39,13.20
2012,08,14,02,40,13.20
2012,08,14,02,41,13.20
2012,08,14,02,42,13.20
2012,08,14,02,43,13.20
2012,08,14,02,44,13.20
2012,08,14,02,45,13.20
2012,08,14,02,46,13.20
2012,08,14,02,47,13.20
2012,08,14,02,48,13.20
2012,08,14,02,49,13.20
2012,08,14,02,50,13.20
2012,08,14,02,51,13.30
2012,08,14,02,52,13.30
2012,08,14,02,53,13.30
2012,08,14,02,54,13.30
2012,08,14,02,55,13.30
2012,08,14,02,56,13.30
2012,08,14,02,57,13.30
2012,08,14,02,58,13.30
2012,08,14,02,59,13.30
2012,08,14,03,00,13.30
2012,08,14,03,01,13.30
2012,08,14,03,02,13.30
2012,08,14,03,03,13.30
2012,08,14,03,04,13.30
2012,08,14,03,05,13.30
2012,08,14,03,06,13.30
2012,08,14,03,07,13.30
2012,08,14,03,08,13.30
2012,08,14,03,09,13.20
2012,08,14,03,10,13.20
2012,08,14,03,11,13.20
2012,08,14,03,12,13.20
2012,08,14,03,13,13.20
2012,08,14,03,14,13.20
2012,08,14,03,15,13.20
2012,08,14,03,16,13.20
2012,08,14,03,17,13.20
2012,08,14,03,18,13.30
2012,08,14,03,19,13.30
2012,08,14,03,20,13.30
2012,08,14,03,21,13.30
2012,08,14,03,22,13.30
2012,08,14,03,23,13.30
2012,08,14,03,24,13.30
2012,08,14,03,25,13.30
2012,08,14,03,26,13.30
2012,08,14,03,27,13.30
2012,08,14,03,28,13.30
2012,08,14,03,29,13.30
2012,08,14,03,30,13.30
2012,08,14,03,31,13.30
2012,08,14,03,32,13.30
2012,08,14,03,33,13.30
2012,08,14,03,34,13.30
2012,08,14,03,35,13.30
2012,08,14,03,36,13.30
2012,08,14,03,37,13.30
2012,08,14,03,38,13.30
2012,08,14,03,39,13.30
2012,08,14,03,40,13.30
2012,08,14,03,41,13.30
2012,08,14,03,42,13.30
2012,08,14,03,43,13.30
2012,08,14,03,44,13.30
2012,08,14,03,45,13.30
2012,08,14,03,46,13.30
2012,08,14,03,47,13.30
2012,08,14,03,48,13.30
2012,08,14,03,49,13.30
2012,08,14,03,50,13.30
2012,08,14,03,51,13.30
2012,08,14,03,52,13.30
2012,08,14,03,53,13.30
2012,08,14,03,54,13.30
2012,08,14,03,55,13.30
2012,08,14,03,56,13.30
2012,08,14,03,57,13.30
2012,08,14,03,58,13.30
2012,08,14,03,59,13.20
2012,08,14,04,00,13.30
2012,08,14,04,01,13.20
2012,08,14,04,02,13.30
2012,08,14,04,03,13.20
2012,08,14,04,04,13.20
2012,08,14,04,05,13.20
2012,08,14,04,06,13.20
2012,08,14,04,07,13.20
2012,08,14,04,08,13.20
2012,08,14,04,09,13.20
2012,08,14,04,10,13.20
2012,08,14,04,11,13.20
2012,08,14,04,12,13.20
2012,08,14,04,13,13.20
2012,08,14,04,14,13.20
2012,08,14,04,15,13.20
2012,08,14,04,16,13.20
2012,08,14,04,17,13.20
2012,08,14,04,18,13.20
2012,08,14,04,19,13.20
2012,08,14,04,20,13.20
2012,08,14,04,21,13.20
2012,08,14,04,22,13.20
2012,08,14,04,23,13.30
2012,08,14,04,24,13.20
2012,08,14,04,25,13.30
2012,08,14,04,26,13.30
2012,08,14,04,27,13.30
2012,08,14,04,28,13.30
2012,08,14,04,29,13.30
2012,08,14,04,30,13.30
2012,08,14,04,31,13.30
2012,08,14,04,32,13.30
2012,08,14,04,33,13.30
2012,08,14,04,34,13.30
2012,08,14,04,35,13.20
2012,08,14,04,36,13.20
2012,08,14,04,37,13.20
2012,08,14,04,38,13.20
2012,08,14,04,39,13.20
2012,08,14,04,40,13.20
2012,08,14,04,41,13.20
2012,08,14,04,42,13.20
2012,08,14,04,43,13.20
2012,08,14,04,44,13.20
2012,08,14,04,45,13.20
2012,08,14,04,46,13.20
2012,08,14,04,47,13.20
2012,08,14,04,48,13.20
2012,08,14,04,49,13.20
2012,08,14,04,50,13.20
2012,08,14,04,51,13.20
2012,08,14,04,52,13.20
2012,08,14,04,53,13.20
2012,08,14,04,54,13.20
2012,08,14,04,55,13.20
2012,08,14,04,56,13.20
2012,08,14,04,57,13.20
2012,08,14,04,58,13.20
2012,08,14,04,59,13.20
2012,08,14,05,00,13.20
2012,08,14,05,01,13.20
2012,08,14,05,02,13.20
2012,08,14,05,03,13.20
2012,08,14,05,04,13.20
2012,08,14,05,05,13.20
2012,08,14,05,06,13.20
2012,08,14,05,07,13.20
2012,08,14,05,08,13.20
2012,08,14,05,09,13.20
2012,08,14,05,10,13.20
2012,08,14,05,11,13.20
2012,08,14,05,12,13.20
2012,08,14,05,13,13.20
2012,08,14,05,14,13.20
2012,08,14,05,15,13.20
2012,08,14,05,16,13.20
2012,08,14,05,17,13.20
2012,08,14,05,18,13.20
2012,08,14,05,19,13.20
2012,08,14,05,20,13.20
2012,08,14,05,21,13.20
2012,08,14,05,22,13.10
2012,08,14,05,23,13.20
2012,08,14,05,24,13.10
2012,08,14,05,25,13.20
2012,08,14,05,26,13.20
2012,08,14,05,27,13.10
2012,08,14,05,28,13.10
2012,08,14,05,29,13.10
2012,08,14,05,30,13.10
2012,08,14,05,31,13.10
2012,08,14,05,32,13.10
2012,08,14,05,33,13.10
2012,08,14,05,34,13.10
2012,08,14,05,35,13.10
2012,08,14,05,36,13.10
2012,08,14,05,37,13.10
2012,08,14,05,38,13.10
2012,08,14,05,39,13.10
2012,08,14,05,40,13.10
2012,08,14,05,41,13.10
2012,08,14,05,42,13.10
2012,08,14,05,43,13.10
2012,08,14,05,44,13.10
2012,08,14,05,45,13.10
2012,08,14,05,46,13.10
2012,08,14,05,47,13.10
2012,08,14,05,48,13.10
2012,08,14,05,49,13.10
2012,08,14,05,50,13.10
2012,08,14,05,51,13.10
2012,08,14,05,52,13.10
2012,08,14,05,53,13.10
2012,08,14,05,54,13.10
2012,08,14,05,55,13.10
2012,08,14,05,56,13.10
2012,08,14,05,57,13.10
2012,08,14,05,58,13.10
2012,08,14,05,59,13.10
2012,08,14,06,00,13.10
2012,08,14,06,01,13.10
2012,08,14,06,02,13.10
2012,08,14,06,03,13.10
2012,08,14,06,04,13.10
2012,08,14,06,05,13.10
2012,08,14,06,06,13.10
2012,08,14,06,07,13.10
2012,08,14,06,08,13.10
2012,08,14,06,09,13.10
2012,08,14,06,10,13.10
2012,08,14,06,11,13.10
2012,08,14,06,12,13.10
2012,08,14,06,13,13.10
2012,08,14,06,14,13.10
2012,08,14,06,15,13.10
2012,08,14,06,16,13.10
2012,08,14,06,17,13.10
2012,08,14,06,18,13.10
2012,08,14,06,19,13.10
2012,08,14,06,20,13.10
2012,08,14,06,21,13.10
2012,08,14,06,22,13.10
2012,08,14,06,23,13.10
2012,08,14,06,24,13.10
2012,08,14,06,25,13.10
2012,08,14,06,26,13.10
2012,08,14,06,27,13.10
2012,08,14,06,28,13.10
2012,08,14,06,29,13.10
2012,08,14,06,30,13.10
2012,08,14,06,31,13.20
2012,08,14,06,32,13.20
2012,08,14,06,33,13.20
2012,08,14,06,34,13.20
2012,08,14,06,35,13.20
2012,08,14,06,36,13.20
2012,08,14,06,37,13.20
2012,08,14,06,38,13.20
2012,08,14,06,39,13.20
2012,08,14,06,40,13.20
2012,08,14,06,41,13.20
2012,08,14,06,42,13.20
2012,08,14,06,43,13.20
2012,08,14,06,44,13.20
2012,08,14,06,45,13.20
2012,08,14,06,46,13.20
2012,08,14,06,47,13.20
2012,08,14,06,48,13.20
2012,08,14,06,49,13.20
2012,08,14,06,50,13.20
2012,08,14,06,51,13.20
2012,08,14,06,52,13.20
2012,08,14,06,53,13.20
2012,08,14,06,54,13.20
2012,08,14,06,55,13.20
2012,08,14,06,56,13.30
2012,08,14,06,57,13.30
2012,08,14,06,58,13.30
2012,08,14,06,59,13.30
2012,08,14,07,00,13.30
2012,08,14,07,01,13.30
2012,08,14,07,02,13.30
2012,08,14,07,03,13.30
2012,08,14,07,04,13.30
2012,08,14,07,05,13.30
2012,08,14,07,06,13.30
2012,08,14,07,07,13.30
2012,08,14,07,08,13.40
2012,08,14,07,09,13.40
2012,08,14,07,10,13.40
2012,08,14,07,11,13.40
2012,08,14,07,12,13.40
2012,08,14,07,13,13.40
2012,08,14,07,14,13.40
2012,08,14,07,15,13.40
2012,08,14,07,16,13.40
2012,08,14,07,17,13.40
2012,08,14,07,18,13.50
2012,08,14,07,19,13.50
2012,08,14,07,20,13.50
2012,08,14,07,21,13.50
2012,08,14,07,22,13.50
2012,08,14,07,23,13.60
2012,08,14,07,24,13.60
2012,08,14,07,25,13.60
2012,08,14,07,26,13.60
2012,08,14,07,27,13.60
2012,08,14,07,28,13.60
2012,08,14,07,29,13.70
2012,08,14,07,30,13.70
2012,08,14,07,31,13.70
2012,08,14,07,32,13.70
2012,08,14,07,33,13.70
2012,08,14,07,34,13.70
2012,08,14,07,35,13.80
2012,08,14,07,36,13.80
2012,08,14,07,37,13.80
2012,08,14,07,38,13.80
2012,08,14,07,39,13.80
2012,08,14,07,40,13.90
2012,08,14,07,41,13.90
2012,08,14,07,42,13.90
2012,08,14,07,43,14.00
2012,08,14,07,44,14.10
2012,08,14,07,45,14.10
2012,08,14,07,46,14.10
2012,08,14,07,47,14.20
2012,08,14,07,48,14.20
2012,08,14,07,49,14.20
2012,08,14,07,50,14.20
2012,08,14,07,51,14.30
2012,08,14,07,52,14.30
2012,08,14,07,53,14.30
2012,08,14,07,54,14.30
2012,08,14,07,55,14.30
2012,08,14,07,56,14.30
2012,08,14,07,57,14.30
2012,08,14,07,58,14.30
2012,08,14,07,59,14.30
2012,08,14,08,00,14.30
2012,08,14,08,01,14.30
2012,08,14,08,02,14.40
2012,08,14,08,03,14.40
2012,08,14,08,04,14.40
2012,08,14,08,05,14.40
2012,08,14,08,06,14.40
2012,08,14,08,07,14.40
2012,08,14,08,08,14.40
2012,08,14,08,09,14.50
2012,08,14,08,10,14.50
2012,08,14,08,11,14.50
2012,08,14,08,12,14.60
2012,08,14,08,13,14.60
2012,08,14,08,14,14.60
2012,08,14,08,15,14.60
2012,08,14,08,16,14.70
2012,08,14,08,17,14.70
2012,08,14,08,18,14.70
2012,08,14,08,19,14.80
2012,08,14,08,20,14.80
2012,08,14,08,21,14.80
2012,08,14,08,22,14.90
2012,08,14,08,23,14.90
2012,08,14,08,24,14.90
2012,08,14,08,25,15.00
2012,08,14,08,26,15.00
2012,08,14,08,27,15.10
2012,08,14,08,28,15.10
2012,08,14,08,29,15.20
2012,08,14,08,30,15.20
2012,08,14,08,31,15.30
2012,08,14,08,32,15.30
2012,08,14,08,33,15.40
2012,08,14,08,34,15.50
2012,08,14,08,35,15.60
2012,08,14,08,36,15.70
2012,08,14,08,37,15.80
2012,08,14,08,38,15.90
2012,08,14,08,39,16.00
2012,08,14,08,40,16.20
2012,08,14,08,41,16.30
2012,08,14,08,42,16.40
2012,08,14,08,43,16.50
2012,08,14,08,44,16.60
2012,08,14,08,45,16.70
2012,08,14,08,46,16.80
2012,08,14,08,47,17.00
2012,08,14,08,48,17.10
2012,08,14,08,49,17.30
2012,08,14,08,50,17.40
2012,08,14,08,51,17.50
2012,08,14,08,52,17.60
2012,08,14,08,53,17.70
2012,08,14,08,54,17.80
2012,08,14,08,55,18.00
2012,08,14,08,56,18.00
2012,08,14,08,57,18.10
2012,08,14,08,58,18.20
2012,08,14,08,59,18.30
2012,08,14,09,00,18.40
2012,08,14,09,01,18.50
2012,08,14,09,02,18.50
2012,08,14,09,03,18.60
2012,08,14,09,04,18.60
2012,08,14,09,05,18.60
2012,08,14,09,06,18.50
2012,08,14,09,07,18.50
2012,08,14,09,08,18.40
2012,08,14,09,09,18.40
2012,08,14,09,10,18.30
2012,08,14,09,11,18.30
2012,08,14,09,12,18.20
2012,08,14,09,13,18.20
2012,08,14,09,14,18.20
2012,08,14,09,15,18.20
2012,08,14,09,16,18.20
2012,08,14,09,17,18.20
2012,08,14,09,18,18.20
2012,08,14,09,19,18.20
2012,08,14,09,20,18.20
2012,08,14,09,21,18.30
2012,08,14,09,22,18.30
2012,08,14,09,23,18.20
2012,08,14,09,24,18.20
2012,08,14,09,25,18.20
2012,08,14,09,26,18.10
2012,08,14,09,27,18.10
2012,08,14,09,28,18.10
2012,08,14,09,29,18.10
2012,08,14,09,30,18.20
2012,08,14,09,31,18.20
2012,08,14,09,32,18.20
2012,08,14,09,33,18.30
2012,08,14,09,34,18.30
2012,08,14,09,35,18.40
2012,08,14,09,36,18.40
2012,08,14,09,37,18.40
2012,08,14,09,38,18.40
2012,08,14,09,39,18.40
2012,08,14,09,40,18.40
2012,08,14,09,41,18.40
2012,08,14,09,42,18.40
2012,08,14,09,43,18.40
2012,08,14,09,44,18.40
2012,08,14,09,45,18.50
2012,08,14,09,46,18.50
2012,08,14,09,47,18.60
2012,08,14,09,48,18.60
2012,08,14,09,49,18.60
2012,08,14,09,50,18.70
2012,08,14,09,51,18.80
2012,08,14,09,52,18.80
2012,08,14,09,53,18.80
2012,08,14,09,54,18.90
2012,08,14,09,55,18.90
2012,08,14,09,56,18.90
2012,08,14,09,57,18.90
2012,08,14,09,58,18.90
2012,08,14,09,59,18.90
2012,08,14,10,00,18.90
2012,08,14,10,01,18.90
2012,08,14,10,02,19.00
2012,08,14,10,03,19.10
2012,08,14,10,04,19.10
2012,08,14,10,05,19.10
2012,08,14,10,06,19.10
2012,08,14,10,07,19.10
2012,08,14,10,08,19.10
2012,08,14,10,09,19.10
2012,08,14,10,10,19.20
2012,08,14,10,11,19.20
2012,08,14,10,12,19.20
2012,08,14,10,13,19.20
2012,08,14,10,14,19.20
2012,08,14,10,15,19.30
2012,08,14,10,16,19.30
2012,08,14,10,17,19.30
2012,08,14,10,18,19.20
2012,08,14,10,19,19.20
2012,08,14,10,20,19.30
2012,08,14,10,21,19.30
2012,08,14,10,22,19.20
2012,08,14,10,23,19.20
2012,08,14,10,24,19.30
2012,08,14,10,25,19.40
2012,08,14,10,26,19.50
2012,08,14,10,27,19.60
2012,08,14,10,28,19.70
2012,08,14,10,29,19.70
2012,08,14,10,30,19.70
2012,08,14,10,31,19.70
2012,08,14,10,32,19.70
2012,08,14,10,33,19.70
2012,08,14,10,34,19.70
2012,08,14,10,35,19.60
2012,08,14,10,36,19.70
2012,08,14,10,37,19.60
2012,08,14,10,38,19.70
2012,08,14,10,39,19.80
2012,08,14,10,40,19.70
2012,08,14,10,41,19.70
2012,08,14,10,42,19.60
2012,08,14,10,43,19.60
2012,08,14,10,44,19.60
2012,08,14,10,45,19.60
2012,08,14,10,46,19.60
2012,08,14,10,47,19.50
2012,08,14,10,48,19.50
2012,08,14,10,49,19.50
2012,08,14,10,50,19.40
2012,08,14,10,51,19.40
2012,08,14,10,52,19.40
2012,08,14,10,53,19.50
2012,08,14,10,54,19.60
2012,08,14,10,55,19.60
2012,08,14,10,56,19.60
2012,08,14,10,57,19.70
2012,08,14,10,58,19.70
2012,08,14,10,59,19.60
2012,08,14,11,00,19.60
2012,08,14,11,01,19.50
2012,08,14,11,02,19.50
2012,08,14,11,03,19.50
2012,08,14,11,04,19.50
2012,08,14,11,05,19.40
2012,08,14,11,06,19.40
2012,08,14,11,07,19.40
2012,08,14,11,08,19.50
2012,08,14,11,09,19.60
2012,08,14,11,10,19.70
2012,08,14,11,11,19.60
2012,08,14,11,12,19.70
2012,08,14,11,13,19.70
2012,08,14,11,14,19.80
2012,08,14,11,15,19.90
2012,08,14,11,16,19.90
2012,08,14,11,17,19.90
2012,08,14,11,18,19.80
2012,08,14,11,19,19.80
2012,08,14,11,20,19.60
2012,08,14,11,21,19.50
2012,08,14,11,22,19.30
2012,08,14,11,23,19.20
2012,08,14,11,24,19.00
2012,08,14,11,25,18.80
2012,08,14,11,26,18.70
2012,08,14,11,27,18.60
2012,08,14,11,28,18.60
2012,08,14,11,29,18.60
2012,08,14,11,30,18.70
2012,08,14,11,31,18.80
2012,08,14,11,32,18.80
2012,08,14,11,33,18.90
2012,08,14,11,34,18.90
2012,08,14,11,35,18.90
2012,08,14,11,36,18.80
2012,08,14,11,37,18.80
2012,08,14,11,38,18.70
2012,08,14,11,39,18.60
2012,08,14,11,40,18.60
2012,08,14,11,41,18.60
2012,08,14,11,42,18.70
2012,08,14,11,43,18.80
2012,08,14,11,44,18.90
2012,08,14,11,45,18.90
2012,08,14,11,46,19.00
2012,08,14,11,47,19.10
2012,08,14,11,48,19.10
2012,08,14,11,49,19.10
2012,08,14,11,50,19.10
2012,08,14,11,51,19.00
2012,08,14,11,52,19.00
2012,08,14,11,53,19.10
2012,08,14,11,54,19.30
2012,08,14,11,55,19.40
2012,08,14,11,56,19.60
2012,08,14,11,57,19.90
2012,08,14,11,58,20.40
2012,08,14,11,59,21.00
2012,08,14,12,00,21.40
2012,08,14,12,01,21.90
2012,08,14,12,02,22.20
2012,08,14,12,03,22.50
2012,08,14,12,04,22.80
2012,08,14,12,05,22.90
2012,08,14,12,06,23.10
2012,08,14,12,07,23.20
2012,08,14,12,08,23.30
2012,08,14,12,09,23.40
2012,08,14,12,10,23.40
2012,08,14,12,11,23.40
2012,08,14,12,12,23.30
2012,08,14,12,13,23.20
2012,08,14,12,14,23.10
2012,08,14,12,15,23.10
2012,08,14,12,16,23.10
2012,08,14,12,17,23.10
2012,08,14,12,18,23.10
2012,08,14,12,19,23.10
2012,08,14,12,20,23.10
2012,08,14,12,21,23.10
2012,08,14,12,22,23.10
2012,08,14,12,23,23.10
2012,08,14,12,24,23.10
2012,08,14,12,25,23.10
2012,08,14,12,26,23.10
2012,08,14,12,27,23.00
2012,08,14,12,28,23.00
2012,08,14,12,29,22.90
2012,08,14,12,30,22.90
2012,08,14,12,31,22.90
2012,08,14,12,32,22.90
2012,08,14,12,33,22.90
2012,08,14,12,34,22.90
2012,08,14,12,35,22.90
2012,08,14,12,36,22.80
2012,08,14,12,37,22.70
2012,08,14,12,38,22.70
2012,08,14,12,39,22.60
2012,08,14,12,40,22.60
2012,08,14,12,41,22.60
2012,08,14,12,42,22.60
2012,08,14,12,43,22.60
2012,08,14,12,44,22.70
2012,08,14,12,45,22.70
2012,08,14,12,46,22.70
2012,08,14,12,47,22.70
2012,08,14,12,48,22.50
2012,08,14,12,49,22.40
2012,08,14,12,50,22.40
2012,08,14,12,51,22.40
2012,08,14,12,52,22.40
2012,08,14,12,53,22.50
2012,08,14,12,54,22.60
2012,08,14,12,55,22.70
2012,08,14,12,56,22.70
2012,08,14,12,57,22.80
2012,08,14,12,58,22.80
2012,08,14,12,59,22.80
2012,08,14,13,00,22.80
2012,08,14,13,01,22.70
2012,08,14,13,02,22.70
2012,08,14,13,03,22.80
2012,08,14,13,04,22.90
2012,08,14,13,05,22.90
2012,08,14,13,06,23.00
2012,08,14,13,07,23.10
2012,08,14,13,08,23.10
2012,08,14,13,09,23.10
2012,08,14,13,10,23.10
2012,08,14,13,11,23.10
2012,08,14,13,12,23.20
2012,08,14,13,13,23.10
2012,08,14,13,14,23.10
2012,08,14,13,15,23.10
2012,08,14,13,16,23.20
2012,08,14,13,17,23.30
2012,08,14,13,18,23.40
2012,08,14,13,19,23.50
2012,08,14,13,20,23.60
2012,08,14,13,21,23.60
2012,08,14,13,22,23.70
2012,08,14,13,23,23.70
2012,08,14,13,24,23.80
2012,08,14,13,25,23.70
2012,08,14,13,26,23.70
2012,08,14,13,27,23.70
2012,08,14,13,28,23.60
2012,08,14,13,29,23.60
2012,08,14,13,30,23.60
2012,08,14,13,31,23.60
2012,08,14,13,32,23.60
2012,08,14,13,33,23.60
2012,08,14,13,34,23.50
2012,08,14,13,35,23.40
2012,08,14,13,36,23.50
2012,08,14,13,37,23.50
2012,08,14,13,38,23.60
2012,08,14,13,39,23.60
2012,08,14,13,40,23.60
2012,08,14,13,41,23.60
2012,08,14,13,42,23.60
2012,08,14,13,43,23.60
2012,08,14,13,44,23.60
2012,08,14,13,45,23.50
2012,08,14,13,46,23.50
2012,08,14,13,47,23.40
2012,08,14,13,48,23.40
2012,08,14,13,49,23.40
2012,08,14,13,50,23.40
2012,08,14,13,51,23.50
2012,08,14,13,52,23.50
2012,08,14,13,53,23.50
2012,08,14,13,54,23.50
2012,08,14,13,55,23.40
2012,08,14,13,56,23.30
2012,08,14,13,57,23.40
2012,08,14,13,58,23.40
2012,08,14,13,59,23.40
2012,08,14,14,00,23.40
2012,08,14,14,01,23.50
2012,08,14,14,02,23.60
2012,08,14,14,03,23.60
2012,08,14,14,04,23.50
2012,08,14,14,05,23.40
2012,08,14,14,06,23.40
2012,08,14,14,07,23.30
2012,08,14,14,08,23.20
2012,08,14,14,09,23.10
2012,08,14,14,10,23.10
2012,08,14,14,11,23.10
2012,08,14,14,12,23.10
2012,08,14,14,13,23.10
2012,08,14,14,14,23.10
2012,08,14,14,15,23.10
2012,08,14,14,16,23.10
2012,08,14,14,17,23.20
2012,08,14,14,18,23.20
2012,08,14,14,19,23.20
2012,08,14,14,20,23.20
2012,08,14,14,21,23.10
2012,08,14,14,22,23.10
2012,08,14,14,23,23.20
2012,08,14,14,24,23.20
2012,08,14,14,25,23.20
2012,08,14,14,26,23.20
2012,08,14,14,27,23.30
2012,08,14,14,28,23.30
2012,08,14,14,29,23.30
2012,08,14,14,30,23.30
2012,08,14,14,31,23.20
2012,08,14,14,32,23.10
2012,08,14,14,33,23.00
2012,08,14,14,34,23.00
2012,08,14,14,35,22.90
2012,08,14,14,36,22.90
2012,08,14,14,37,22.90
2012,08,14,14,38,22.90
2012,08,14,14,39,23.00
2012,08,14,14,40,23.10
2012,08,14,14,41,23.20
2012,08,14,14,42,23.20
2012,08,14,14,43,23.20
2012,08,14,14,44,23.30
2012,08,14,14,45,23.20
2012,08,14,14,46,23.10
2012,08,14,14,47,23.00
2012,08,14,14,48,23.00
2012,08,14,14,49,22.90
2012,08,14,14,50,22.90
2012,08,14,14,51,22.90
2012,08,14,14,52,22.90
2012,08,14,14,53,22.90
2012,08,14,14,54,23.00
2012,08,14,14,55,23.10
2012,08,14,14,56,23.10
2012,08,14,14,57,23.00
2012,08,14,14,58,23.10
2012,08,14,14,59,23.10
2012,08,14,15,00,23.10
2012,08,14,15,01,23.20
2012,08,14,15,02,23.10
2012,08,14,15,03,23.10
2012,08,14,15,04,23.10
2012,08,14,15,05,23.00
2012,08,14,15,06,23.00
2012,08,14,15,07,23.00
2012,08,14,15,08,23.00
2012,08,14,15,09,23.10
2012,08,14,15,10,23.10
2012,08,14,15,11,23.10
2012,08,14,15,12,23.00
2012,08,14,15,13,23.00
2012,08,14,15,14,22.90
2012,08,14,15,15,22.90
2012,08,14,15,16,22.90
2012,08,14,15,17,22.90
2012,08,14,15,18,22.90
2012,08,14,15,19,22.80
2012,08,14,15,20,22.80
2012,08,14,15,21,22.80
2012,08,14,15,22,22.90
2012,08,14,15,23,22.90
2012,08,14,15,24,23.00
2012,08,14,15,25,23.00
2012,08,14,15,26,23.00
2012,08,14,15,27,23.00
2012,08,14,15,28,23.00
2012,08,14,15,29,23.00
2012,08,14,15,30,22.90
2012,08,14,15,31,22.90
2012,08,14,15,32,22.90
2012,08,14,15,33,22.90
2012,08,14,15,34,22.90
2012,08,14,15,35,22.90
2012,08,14,15,36,22.90
2012,08,14,15,37,22.80
2012,08,14,15,38,22.80
2012,08,14,15,39,22.90
2012,08,14,15,40,22.90
2012,08,14,15,41,22.90
2012,08,14,15,42,23.00
2012,08,14,15,43,23.10
2012,08,14,15,44,23.20
2012,08,14,15,45,23.10
2012,08,14,15,46,23.00
2012,08,14,15,47,22.90
2012,08,14,15,48,22.90
2012,08,14,15,49,22.90
2012,08,14,15,50,23.00
2012,08,14,15,51,23.10
2012,08,14,15,52,23.00
2012,08,14,15,53,23.00
2012,08,14,15,54,22.90
2012,08,14,15,55,22.90
2012,08,14,15,56,23.00
2012,08,14,15,57,23.10
2012,08,14,15,58,23.00
2012,08,14,15,59,22.90
2012,08,14,16,00,22.70
2012,08,14,16,01,22.60
2012,08,14,16,02,22.60
2012,08,14,16,03,22.60
2012,08,14,16,04,22.60
2012,08,14,16,05,22.70
2012,08,14,16,06,22.70
2012,08,14,16,07,22.80
2012,08,14,16,08,22.80
2012,08,14,16,09,22.80
2012,08,14,16,10,22.80
2012,08,14,16,11,22.80
2012,08,14,16,12,22.80
2012,08,14,16,13,22.80
2012,08,14,16,14,22.80
2012,08,14,16,15,22.70
2012,08,14,16,16,22.70
2012,08,14,16,17,22.70
2012,08,14,16,18,22.80
2012,08,14,16,19,22.80
2012,08,14,16,20,22.80
2012,08,14,16,21,22.90
2012,08,14,16,22,22.90
2012,08,14,16,23,22.90
2012,08,14,16,24,22.90
2012,08,14,16,25,23.00
2012,08,14,16,26,23.00
2012,08,14,16,27,23.00
2012,08,14,16,28,23.00
2012,08,14,16,29,23.00
2012,08,14,16,30,23.10
2012,08,14,16,31,23.20
2012,08,14,16,32,23.30
2012,08,14,16,33,23.30
2012,08,14,16,34,23.20
2012,08,14,16,35,23.10
2012,08,14,16,36,23.10
2012,08,14,16,37,23.00
2012,08,14,16,38,23.00
2012,08,14,16,39,22.90
2012,08,14,16,40,23.00
2012,08,14,16,41,23.00
2012,08,14,16,42,23.10
2012,08,14,16,43,23.10
2012,08,14,16,44,23.10
2012,08,14,16,45,23.00
2012,08,14,16,46,23.00
2012,08,14,16,47,23.10
2012,08,14,16,48,23.10
2012,08,14,16,49,23.00
2012,08,14,16,50,23.00
2012,08,14,16,51,23.00
2012,08,14,16,52,23.10
2012,08,14,16,53,23.10
2012,08,14,16,54,23.00
2012,08,14,16,55,22.90
2012,08,14,16,56,22.80
2012,08,14,16,57,22.80
2012,08,14,16,58,22.80
2012,08,14,16,59,22.80
2012,08,14,17,00,22.80
2012,08,14,17,01,22.80
2012,08,14,17,02,22.90
2012,08,14,17,03,22.90
2012,08,14,17,04,23.00
2012,08,14,17,05,23.00
2012,08,14,17,06,23.00
2012,08,14,17,07,23.00
2012,08,14,17,08,23.00
2012,08,14,17,09,23.00
2012,08,14,17,10,23.00
2012,08,14,17,11,22.90
2012,08,14,17,12,22.90
2012,08,14,17,13,22.90
2012,08,14,17,14,22.70
2012,08,14,17,15,22.30
2012,08,14,17,16,21.90
2012,08,14,17,17,21.70
2012,08,14,17,18,21.40
2012,08,14,17,19,21.20